Time,TemperatureF,DewpointF,PressureIn,WindDirection,WindDirectionDegrees,WindSpeedMPH,WindSpeedGustMPH,Humidity,HourlyPrecipIn,Conditions,Clouds,dailyrainin,SoftwareType,DateUTC
2013-03-13 00:01:00,91.0,24.0,29.95,WSW,240,2.0,5.0,9,0.00,,,-99.99,,2013-03-13 00:01:00,
2013-03-13 00:11:00,91.0,24.0,29.95,WSW,240,2.0,5.0,9,0.00,,,-99.99,,2013-03-13 00:11:00,
2013-03-13 00:22:00,90.0,26.0,29.95,SE,134,1.0,4.0,10,0.00,,,-99.99,,2013-03-13 00:22:00,
2013-03-13 00:32:00,89.0,25.0,29.95,ESE,109,1.0,7.0,10,0.00,,,-99.99,,2013-03-13 00:32:00,
2013-03-13 00:41:00,89.0,25.0,29.95,ESE,109,1.0,7.0,10,0.00,,,-99.99,,2013-03-13 00:41:00,
2013-03-13 00:53:00,89.0,25.0,29.95,SSE,159,1.0,6.0,10,0.00,,,-99.99,,2013-03-13 00:53:00,
2013-03-13 01:01:00,89.0,28.0,29.95,SW,229,1.0,3.0,11,0.00,,,-99.99,,2013-03-13 01:01:00,
2013-03-13 01:11:00,89.0,28.0,29.95,SW,229,1.0,3.0,11,0.00,,,-99.99,,2013-03-13 01:11:00,
2013-03-13 01:21:00,88.0,27.0,29.95,SE,128,2.0,5.0,11,0.00,,,-99.99,,2013-03-13 01:21:00,
2013-03-13 01:31:00,86.0,25.0,29.96,SE,124,1.0,4.0,11,0.00,,,-99.99,,2013-03-13 01:31:00,
2013-03-13 01:42:00,86.0,25.0,29.96,SE,124,1.0,4.0,11,0.00,,,-99.99,,2013-03-13 01:42:00,
2013-03-13 01:52:00,84.0,28.0,29.96,SE,139,0.0,1.0,13,0.00,,,-99.99,,2013-03-13 01:52:00,
2013-03-13 02:01:00,83.0,31.0,29.96,ESE,111,0.0,1.0,15,0.00,,,-99.99,,2013-03-13 02:01:00,
2013-03-13 02:11:00,83.0,31.0,29.96,ESE,111,0.0,1.0,15,0.00,,,-99.99,,2013-03-13 02:11:00,
2013-03-13 02:21:00,80.0,30.0,29.96,ESE,112,0.0,0.0,16,0.00,,,-99.99,,2013-03-13 02:21:00,
2013-03-13 02:31:00,79.0,30.0,29.97,East,101,1.0,3.0,17,0.00,,,-99.99,,2013-03-13 02:31:00,
2013-03-13 02:42:00,79.0,30.0,29.97,East,101,1.0,3.0,17,0.00,,,-99.99,,2013-03-13 02:42:00,
2013-03-13 02:52:00,79.0,32.0,29.98,SSE,159,0.0,3.0,18,0.00,,,-99.99,,2013-03-13 02:52:00,
2013-03-13 03:01:00,77.0,33.0,29.98,SE,134,0.0,1.0,20,0.00,,,-99.99,,2013-03-13 03:01:00,
2013-03-13 03:11:00,77.0,33.0,29.98,SE,134,0.0,1.0,20,0.00,,,-99.99,,2013-03-13 03:11:00,
2013-03-13 03:21:00,77.0,32.0,29.98,SE,136,1.0,2.0,19,0.00,,,-99.99,,2013-03-13 03:21:00,
2013-03-13 03:31:00,76.0,33.0,29.99,South,188,0.0,1.0,21,0.00,,,-99.99,,2013-03-13 03:31:00,
2013-03-13 03:41:00,76.0,33.0,29.99,South,188,0.0,1.0,21,0.00,,,-99.99,,2013-03-13 03:41:00,
2013-03-13 03:52:00,73.0,32.0,30.00,West,270,0.0,1.0,22,0.00,,,-99.99,,2013-03-13 03:52:00,
2013-03-13 04:02:00,72.0,31.0,30.01,West,278,0.0,1.0,22,0.00,,,-99.99,,2013-03-13 04:02:00,
2013-03-13 04:12:00,72.0,31.0,30.01,West,278,0.0,1.0,22,0.00,,,-99.99,,2013-03-13 04:12:00,
2013-03-13 04:22:00,71.0,30.0,30.02,WNW,300,1.0,2.0,22,0.00,,,-99.99,,2013-03-13 04:22:00,
2013-03-13 04:31:00,70.0,29.0,30.03,NNW,346,1.0,3.0,22,0.00,,,-99.99,,2013-03-13 04:31:00,
2013-03-13 04:42:00,70.0,29.0,30.03,NNW,346,1.0,3.0,22,0.00,,,-99.99,,2013-03-13 04:42:00,
2013-03-13 04:53:00,70.0,29.0,30.03,NW,322,0.0,2.0,22,0.00,,,-99.99,,2013-03-13 04:53:00,
2013-03-13 05:01:00,69.0,30.0,30.03,NNW,329,0.0,1.0,23,0.00,,,-99.99,,2013-03-13 05:01:00,
2013-03-13 05:11:00,69.0,30.0,30.03,NNW,329,0.0,1.0,23,0.00,,,-99.99,,2013-03-13 05:11:00,
2013-03-13 05:21:00,69.0,30.0,30.04,North,8,0.0,1.0,23,0.00,,,-99.99,,2013-03-13 05:21:00,
2013-03-13 05:31:00,69.0,30.0,30.05,WNW,295,0.0,2.0,23,0.00,,,-99.99,,2013-03-13 05:31:00,
2013-03-13 05:42:00,69.0,30.0,30.05,WNW,295,0.0,2.0,23,0.00,,,-99.99,,2013-03-13 05:42:00,
2013-03-13 05:52:00,68.0,29.0,30.05,WNW,286,0.0,1.0,23,0.00,,,-99.99,,2013-03-13 05:52:00,
2013-03-13 06:01:00,67.0,29.0,30.06,NW,307,1.0,2.0,24,0.00,,,-99.99,,2013-03-13 06:01:00,
2013-03-13 06:11:00,67.0,29.0,30.06,NW,307,1.0,2.0,24,0.00,,,-99.99,,2013-03-13 06:11:00,
2013-03-13 06:21:00,66.0,30.0,30.06,West,281,1.0,2.0,26,0.00,,,-99.99,,2013-03-13 06:21:00,
2013-03-13 06:31:00,65.0,29.0,30.06,West,266,0.0,2.0,26,0.00,,,-99.99,,2013-03-13 06:31:00,
2013-03-13 06:41:00,65.0,29.0,30.06,West,266,0.0,2.0,26,0.00,,,-99.99,,2013-03-13 06:41:00,
2013-03-13 06:52:00,65.0,29.0,30.06,WNW,295,1.0,2.0,26,0.00,,,-99.99,,2013-03-13 06:52:00,
2013-03-13 07:01:00,65.0,28.0,30.06,NW,307,1.0,4.0,25,0.00,,,-99.99,,2013-03-13 07:01:00,
2013-03-13 07:11:00,65.0,28.0,30.06,NW,307,1.0,4.0,25,0.00,,,-99.99,,2013-03-13 07:11:00,
2013-03-13 07:21:00,65.0,29.0,30.06,NNW,327,1.0,3.0,26,0.00,,,-99.99,,2013-03-13 07:21:00,
2013-03-13 07:31:00,63.0,29.0,30.06,West,262,1.0,3.0,28,0.00,,,-99.99,,2013-03-13 07:31:00,
2013-03-13 07:41:00,63.0,29.0,30.06,West,262,1.0,3.0,28,0.00,,,-99.99,,2013-03-13 07:41:00,
2013-03-13 07:52:00,62.0,29.0,30.06,NW,326,1.0,3.0,28,0.00,,,-99.99,,2013-03-13 07:52:00,
2013-03-13 08:02:00,63.0,29.0,30.06,WNW,286,1.0,3.0,28,0.00,,,-99.99,,2013-03-13 08:02:00,
2013-03-13 08:11:00,63.0,29.0,30.06,WNW,286,1.0,3.0,28,0.00,,,-99.99,,2013-03-13 08:11:00,
2013-03-13 08:21:00,63.0,29.0,30.06,WNW,287,1.0,4.0,28,0.00,,,-99.99,,2013-03-13 08:21:00,
2013-03-13 08:31:00,62.0,29.0,30.06,West,273,1.0,3.0,29,0.00,,,-99.99,,2013-03-13 08:31:00,
2013-03-13 08:42:00,62.0,29.0,30.06,West,273,1.0,3.0,29,0.00,,,-99.99,,2013-03-13 08:42:00,
2013-03-13 08:53:00,61.0,29.0,30.06,NW,314,0.0,2.0,30,0.00,,,-99.99,,2013-03-13 08:53:00,
2013-03-13 09:11:00,61.0,29.0,30.06,WNW,291,0.0,2.0,30,0.00,,,-99.99,,2013-03-13 09:11:00,
2013-03-13 09:21:00,61.0,29.0,30.06,SW,224,1.0,2.0,29,0.00,,,-99.99,,2013-03-13 09:21:00,
2013-03-13 09:31:00,61.0,29.0,30.06,NW,312,0.0,3.0,29,0.00,,,-99.99,,2013-03-13 09:31:00,
2013-03-13 09:41:00,61.0,29.0,30.06,NW,312,0.0,3.0,29,0.00,,,-99.99,,2013-03-13 09:41:00,
2013-03-13 09:52:00,61.0,29.0,30.05,West,277,0.0,1.0,29,0.00,,,-99.99,,2013-03-13 09:52:00,
2013-03-13 10:01:00,61.0,28.0,30.05,WNW,302,1.0,3.0,28,0.00,,,-99.99,,2013-03-13 10:01:00,
2013-03-13 10:11:00,61.0,28.0,30.05,WNW,302,1.0,3.0,28,0.00,,,-99.99,,2013-03-13 10:11:00,
2013-03-13 10:22:00,62.0,29.0,30.05,West,274,1.0,3.0,28,0.00,,,-99.99,,2013-03-13 10:22:00,
2013-03-13 10:31:00,60.0,28.0,30.04,WNW,297,0.0,3.0,29,0.00,,,-99.99,,2013-03-13 10:31:00,
2013-03-13 10:42:00,60.0,28.0,30.04,WNW,297,0.0,3.0,29,0.00,,,-99.99,,2013-03-13 10:42:00,
2013-03-13 10:52:00,60.0,28.0,30.04,West,280,1.0,2.0,29,0.00,,,-99.99,,2013-03-13 10:52:00,
2013-03-13 11:01:00,60.0,29.0,30.04,West,277,1.0,3.0,31,0.00,,,-99.99,,2013-03-13 11:01:00,
2013-03-13 11:11:00,60.0,29.0,30.04,West,277,1.0,3.0,31,0.00,,,-99.99,,2013-03-13 11:11:00,
2013-03-13 11:21:00,60.0,29.0,30.04,West,280,2.0,4.0,31,0.00,,,-99.99,,2013-03-13 11:21:00,
2013-03-13 11:31:00,59.0,28.0,30.04,West,281,1.0,2.0,31,0.00,,,-99.99,,2013-03-13 11:31:00,
2013-03-13 11:41:00,59.0,28.0,30.04,West,281,1.0,2.0,31,0.00,,,-99.99,,2013-03-13 11:41:00,
2013-03-13 11:52:00,59.0,28.0,30.04,WNW,291,1.0,3.0,31,0.00,,,-99.99,,2013-03-13 11:52:00,
2013-03-13 12:01:00,58.0,28.0,30.04,NW,314,2.0,4.0,32,0.00,,,-99.99,,2013-03-13 12:01:00,
2013-03-13 12:11:00,58.0,28.0,30.04,NW,314,2.0,4.0,32,0.00,,,-99.99,,2013-03-13 12:11:00,
2013-03-13 12:22:00,58.0,29.0,30.04,West,281,2.0,4.0,33,0.00,,,-99.99,,2013-03-13 12:22:00,
2013-03-13 12:32:00,58.0,30.0,30.05,WNW,300,1.0,5.0,34,0.00,,,-99.99,,2013-03-13 12:32:00,
2013-03-13 12:41:00,58.0,30.0,30.05,WNW,300,1.0,5.0,34,0.00,,,-99.99,,2013-03-13 12:41:00,
2013-03-13 12:52:00,59.0,30.0,30.05,NW,314,0.0,3.0,33,0.00,,,-99.99,,2013-03-13 12:52:00,
2013-03-13 13:01:00,58.0,29.0,30.06,WNW,283,0.0,2.0,33,0.00,,,-99.99,,2013-03-13 13:01:00,
2013-03-13 13:11:00,58.0,29.0,30.06,WNW,283,0.0,2.0,33,0.00,,,-99.99,,2013-03-13 13:11:00,
2013-03-13 13:21:00,59.0,29.0,30.06,WNW,298,2.0,3.0,32,0.00,,,-99.99,,2013-03-13 13:21:00,
2013-03-13 13:32:00,59.0,28.0,30.06,WNW,284,1.0,2.0,31,0.00,,,-99.99,,2013-03-13 13:32:00,
2013-03-13 13:41:00,59.0,28.0,30.06,WNW,284,1.0,2.0,31,0.00,,,-99.99,,2013-03-13 13:41:00,
2013-03-13 13:52:00,59.0,28.0,30.06,NW,309,2.0,3.0,31,0.00,,,-99.99,,2013-03-13 13:52:00,
2013-03-13 14:01:00,61.0,27.0,30.07,West,271,0.0,3.0,27,0.00,,,-99.99,,2013-03-13 14:01:00,
2013-03-13 14:11:00,61.0,27.0,30.07,West,271,0.0,3.0,27,0.00,,,-99.99,,2013-03-13 14:11:00,
2013-03-13 14:21:00,61.0,29.0,30.08,WNW,300,1.0,4.0,30,0.00,,,-99.99,,2013-03-13 14:21:00,
2013-03-13 14:32:00,60.0,28.0,30.08,NW,307,1.0,3.0,30,0.00,,,-99.99,,2013-03-13 14:32:00,
2013-03-13 14:41:00,60.0,28.0,30.08,NW,307,1.0,3.0,30,0.00,,,-99.99,,2013-03-13 14:41:00,
2013-03-13 14:52:00,61.0,28.0,30.09,NW,326,0.0,3.0,28,0.00,,,-99.99,,2013-03-13 14:52:00,
2013-03-13 15:01:00,62.0,29.0,30.09,NW,317,0.0,3.0,28,0.00,,,-99.99,,2013-03-13 15:01:00,
2013-03-13 15:11:00,62.0,29.0,30.09,NW,317,0.0,3.0,28,0.00,,,-99.99,,2013-03-13 15:11:00,
2013-03-13 15:21:00,64.0,29.0,30.09,NW,311,0.0,3.0,27,0.00,,,-99.99,,2013-03-13 15:21:00,
2013-03-13 15:31:00,66.0,30.0,30.10,WNW,284,1.0,2.0,26,0.00,,,-99.99,,2013-03-13 15:31:00,
2013-03-13 15:42:00,66.0,30.0,30.10,WNW,284,1.0,2.0,26,0.00,,,-99.99,,2013-03-13 15:42:00,
2013-03-13 15:52:00,68.0,32.0,30.10,WNW,291,1.0,3.0,26,0.00,,,-99.99,,2013-03-13 15:52:00,
2013-03-13 16:02:00,70.0,33.0,30.10,West,274,1.0,3.0,25,0.00,,,-99.99,,2013-03-13 16:02:00,
2013-03-13 16:11:00,70.0,33.0,30.10,West,274,1.0,3.0,25,0.00,,,-99.99,,2013-03-13 16:11:00,
2013-03-13 16:21:00,73.0,33.0,30.10,West,281,0.0,1.0,23,0.00,,,-99.99,,2013-03-13 16:21:00,
2013-03-13 16:31:00,76.0,31.0,30.10,WNW,295,0.0,3.0,19,0.00,,,-99.99,,2013-03-13 16:31:00,
2013-03-13 16:41:00,76.0,31.0,30.10,WNW,295,0.0,3.0,19,0.00,,,-99.99,,2013-03-13 16:41:00,
2013-03-13 16:52:00,78.0,30.0,30.10,North,1,0.0,2.0,17,0.00,,,-99.99,,2013-03-13 16:52:00,
2013-03-13 17:01:00,80.0,30.0,30.10,NNW,347,0.0,1.0,16,0.00,,,-99.99,,2013-03-13 17:01:00,
2013-03-13 17:11:00,80.0,30.0,30.10,NNW,347,0.0,1.0,16,0.00,,,-99.99,,2013-03-13 17:11:00,
2013-03-13 17:21:00,83.0,31.0,30.10,NNW,348,0.0,0.0,15,0.00,,,-99.99,,2013-03-13 17:21:00,
2013-03-13 17:31:00,85.0,30.0,30.10,SW,235,0.0,0.0,14,0.00,,,-99.99,,2013-03-13 17:31:00,
2013-03-13 17:41:00,85.0,30.0,30.10,SW,235,0.0,0.0,14,0.00,,,-99.99,,2013-03-13 17:41:00,
2013-03-13 17:53:00,89.0,32.0,30.10,WSW,240,0.0,0.0,13,0.00,,,-99.99,,2013-03-13 17:53:00,
2013-03-13 18:01:00,90.0,28.0,30.09,SW,232,0.0,0.0,11,0.00,,,-99.99,,2013-03-13 18:01:00,
2013-03-13 18:11:00,90.0,28.0,30.09,SW,232,0.0,0.0,11,0.00,,,-99.99,,2013-03-13 18:11:00,
2013-03-13 18:21:00,90.0,26.0,30.09,WNW,285,0.0,2.0,10,0.00,,,-99.99,,2013-03-13 18:21:00,
2013-03-13 18:32:00,92.0,30.0,30.08,WSW,254,1.0,2.0,11,0.00,,,-99.99,,2013-03-13 18:32:00,
2013-03-13 18:42:00,92.0,30.0,30.08,WSW,254,1.0,2.0,11,0.00,,,-99.99,,2013-03-13 18:42:00,
2013-03-13 18:52:00,92.0,28.0,30.08,WSW,243,0.0,3.0,10,0.00,,,-99.99,,2013-03-13 18:52:00,
2013-03-13 19:01:00,92.0,25.0,30.07,SSE,159,0.0,3.0,9,0.00,,,-99.99,,2013-03-13 19:01:00,
2013-03-13 19:11:00,92.0,25.0,30.07,SSE,159,0.0,3.0,9,0.00,,,-99.99,,2013-03-13 19:11:00,
2013-03-13 19:22:00,93.0,26.0,30.06,ESE,113,1.0,4.0,9,0.00,,,-99.99,,2013-03-13 19:22:00,
2013-03-13 19:31:00,91.0,27.0,30.06,West,260,2.0,6.0,10,0.00,,,-99.99,,2013-03-13 19:31:00,
2013-03-13 19:42:00,91.0,27.0,30.06,West,260,2.0,6.0,10,0.00,,,-99.99,,2013-03-13 19:42:00,
2013-03-13 19:53:00,92.0,28.0,30.05,SW,217,1.0,7.0,10,0.00,,,-99.99,,2013-03-13 19:53:00,
2013-03-13 20:01:00,94.0,29.0,30.04,South,179,2.0,7.0,10,0.00,,,-99.99,,2013-03-13 20:01:00,
2013-03-13 20:11:00,94.0,29.0,30.04,South,179,2.0,7.0,10,0.00,,,-99.99,,2013-03-13 20:11:00,
2013-03-13 20:21:00,94.0,27.0,30.04,WNW,302,1.0,6.0,9,0.00,,,-99.99,,2013-03-13 20:21:00,
2013-03-13 20:31:00,94.0,27.0,30.03,WNW,301,2.0,5.0,9,0.00,,,-99.99,,2013-03-13 20:31:00,
2013-03-13 20:41:00,94.0,27.0,30.03,WNW,301,2.0,5.0,9,0.00,,,-99.99,,2013-03-13 20:41:00,
2013-03-13 20:52:00,95.0,27.0,30.02,WSW,246,1.0,5.0,9,0.00,,,-99.99,,2013-03-13 20:52:00,
2013-03-13 21:01:00,95.0,27.0,30.01,East,100,1.0,5.0,9,0.00,,,-99.99,,2013-03-13 21:01:00,
2013-03-13 21:11:00,95.0,27.0,30.01,East,100,1.0,5.0,9,0.00,,,-99.99,,2013-03-13 21:11:00,
2013-03-13 21:21:00,96.0,25.0,30.01,ESE,106,4.0,6.0,8,0.00,,,-99.99,,2013-03-13 21:21:00,
2013-03-13 21:31:00,96.0,25.0,30.00,South,183,1.0,4.0,8,0.00,,,-99.99,,2013-03-13 21:31:00,
2013-03-13 21:41:00,96.0,25.0,30.00,South,183,1.0,4.0,8,0.00,,,-99.99,,2013-03-13 21:41:00,
2013-03-13 21:52:00,96.0,25.0,30.00,SW,216,1.0,5.0,8,0.00,,,-99.99,,2013-03-13 21:52:00,
2013-03-13 22:01:00,96.0,25.0,29.99,SW,236,1.0,4.0,8,0.00,,,-99.99,,2013-03-13 22:01:00,
2013-03-13 22:11:00,96.0,25.0,29.99,SW,236,1.0,4.0,8,0.00,,,-99.99,,2013-03-13 22:11:00,
2013-03-13 22:21:00,96.0,25.0,29.98,East,90,1.0,4.0,8,0.00,,,-99.99,,2013-03-13 22:21:00,
2013-03-13 22:31:00,97.0,23.0,29.98,North,360,1.0,4.0,7,0.00,,,-99.99,,2013-03-13 22:31:00,
2013-03-13 22:42:00,97.0,23.0,29.98,North,360,1.0,4.0,7,0.00,,,-99.99,,2013-03-13 22:42:00,
2013-03-13 22:52:00,97.0,26.0,29.98,SW,219,2.0,5.0,8,0.00,,,-99.99,,2013-03-13 22:52:00,
2013-03-13 23:01:00,97.0,19.0,29.97,West,281,1.0,3.0,6,0.00,,,-99.99,,2013-03-13 23:01:00,
2013-03-13 23:11:00,97.0,19.0,29.97,West,281,1.0,3.0,6,0.00,,,-99.99,,2013-03-13 23:11:00,
2013-03-13 23:21:00,96.0,22.0,29.97,East,89,1.0,4.0,7,0.00,,,-99.99,,2013-03-13 23:21:00,
2013-03-13 23:31:00,97.0,23.0,29.96,WNW,298,0.0,4.0,7,0.00,,,-99.99,,2013-03-13 23:31:00,
2013-03-13 23:42:00,97.0,23.0,29.96,WNW,298,0.0,4.0,7,0.00,,,-99.99,,2013-03-13 23:42:00,
2013-03-13 23:52:00,98.0,20.0,29.96,SSE,165,1.0,4.0,6,0.00,,,-99.99,,2013-03-13 23:52:00,